Weather History for Crestview, FL

Change the Weather History Date:

Wednesday, November 16, 2011

  Actual Average Record
Temperature  
Mean Temperature 72 °F -  
Max Temperature 79 °F - - ()
Min Temperature 65 °F - - ()
Cooling Degree Days 7    
Growing Degree Days 22 (Base 50)    
Moisture  
Dew Point 71 °F    
Average Humidity 91    
Maximum Humidity 100    
Minimum Humidity 62    
Precipitation  
Precipitation 0.03 in - - ()
Sea Level Pressure  
Sea Level Pressure 29.89 in    
Wind  
Wind Speed 13 mph (South)    
Max Wind Speed 25 mph    
Max Gust Speed 36 mph    
Visibility 10 miles    
Events Rain , Thunderstorm    
T = Trace of Precipitation, MM = Missing Value Source: NWS Daily Summary

Daily Weather History Graph

Daily Weather History Graph

Search for Another Location

Airport:

Trip Planner

Search our weather history database for the weather conditions in past years. The results will help you decide how hot, cold, wet, or windy it might be!

Date:

Astronomy

Nov. 16, 2011 Rise Set
Actual Time 6:12 AM CST 4:48 PM CST
Civil Twilight 5:47 AM CST 5:13 PM CST
Nautical Twilight 5:18 AM CST 5:43 PM CST
Astronomical Twilight 4:49 AM CST 6:11 PM CST
Moon 9:58 PM CST (11/16) 10:50 AM CST (11/16)
Length of Visible Light 11h 26m
Length of Day
10h 35m
Waning Gibbous, 70% of the Moon is Illuminated
Nov 16
Waning Gibbous
Nov 18
Last Quarter
Nov 25
New
Dec 2
First Quarter
Dec 10
Full

Hourly Weather History & Observations

Time (CST) Temp. Dew Point Humidity Pressure Visibility Wind Dir Wind Speed Gust Speed Precip Events Conditions
12:11 AM 73.4 °F 73.4 °F 100% 29.92 in 9.0 mi South 11.5 mph - N/A   Overcast
12:25 AM 73.4 °F 73.4 °F 100% 29.92 in 9.0 mi South 10.4 mph - N/A   Overcast
12:30 AM 73.4 °F 73.4 °F 100% 29.91 in 9.0 mi South 15.0 mph - N/A   Overcast
12:40 AM 73.4 °F 73.4 °F 100% 29.91 in 10.0 mi South 13.8 mph 23.0 mph N/A   Mostly Cloudy
12:43 AM 73.4 °F 73.4 °F 100% 29.91 in 10.0 mi South 16.1 mph 23.0 mph N/A   Mostly Cloudy
12:48 AM 73.4 °F 73.4 °F 100% 29.91 in 10.0 mi South 15.0 mph 24.2 mph N/A   Mostly Cloudy
12:55 AM 73.9 °F 73.0 °F 97% 29.91 in 10.0 mi South 13.8 mph 24.2 mph N/A   Mostly Cloudy
1:00 AM 73.4 °F 73.4 °F 100% 29.91 in 9.0 mi South 11.5 mph 19.6 mph N/A   Mostly Cloudy
1:10 AM 73.4 °F 73.4 °F 100% 29.91 in 10.0 mi South 12.7 mph - N/A   Overcast
1:46 AM 73.4 °F 73.4 °F 100% 29.91 in 10.0 mi South 11.5 mph - N/A   Mostly Cloudy
1:55 AM 74.1 °F 73.2 °F 97% 29.91 in 10.0 mi South 13.8 mph - N/A   Mostly Cloudy
1:58 AM 75.2 °F 73.4 °F 94% 29.90 in 10.0 mi South 13.8 mph - N/A   Mostly Cloudy
2:10 AM 75.2 °F 73.4 °F 94% 29.90 in 10.0 mi South 13.8 mph - N/A   Mostly Cloudy
2:16 AM 73.4 °F 73.4 °F 100% 29.90 in 10.0 mi South 11.5 mph - N/A   Mostly Cloudy
2:47 AM 73.4 °F 73.4 °F 100% 29.90 in 10.0 mi South 10.4 mph - N/A   Overcast
2:55 AM 74.1 °F 72.9 °F 96% 29.90 in 10.0 mi South 12.7 mph - N/A   Overcast
3:55 AM 73.9 °F 72.5 °F 95% 29.88 in 10.0 mi South 11.5 mph - N/A   Overcast
3:58 AM 73.4 °F 73.4 °F 100% 29.88 in 10.0 mi South 10.4 mph - N/A   Overcast
4:19 AM 73.4 °F 73.4 °F 100% 29.89 in 10.0 mi South 12.7 mph - N/A   Overcast
4:46 AM 73.4 °F 71.6 °F 94% 29.89 in 10.0 mi South 11.5 mph - N/A   Overcast
4:55 AM 73.8 °F 72.5 °F 96% 29.89 in 10.0 mi South 13.8 mph - N/A   Mostly Cloudy
5:08 AM 73.4 °F 71.6 °F 94% 29.89 in 10.0 mi South 11.5 mph - N/A   Scattered Clouds
5:28 AM 73.4 °F 73.4 °F 100% 29.89 in 10.0 mi South 10.4 mph - N/A   Mostly Cloudy
5:35 AM 73.4 °F 71.6 °F 94% 29.89 in 10.0 mi South 10.4 mph - N/A   Mostly Cloudy
5:55 AM 73.8 °F 72.5 °F 96% 29.90 in 10.0 mi South 10.4 mph - N/A   Overcast
6:14 AM 73.4 °F 73.4 °F 100% 29.90 in 10.0 mi South 11.5 mph - N/A   Overcast
6:31 AM 73.4 °F 73.4 °F 100% 29.90 in 10.0 mi South 13.8 mph - N/A   Overcast
6:37 AM 73.4 °F 73.4 °F 100% 29.90 in 10.0 mi South 11.5 mph - N/A   Overcast
6:39 AM 73.4 °F 73.4 °F 100% 29.90 in 10.0 mi South 10.4 mph - N/A   Overcast
6:55 AM 74.1 °F 72.9 °F 96% 29.91 in 10.0 mi South 11.5 mph - N/A   Overcast
7:03 AM 73.4 °F 73.4 °F 100% 29.91 in 10.0 mi South 11.5 mph - N/A   Overcast
7:21 AM 75.2 °F 73.4 °F 94% 29.91 in 10.0 mi South 15.0 mph - N/A   Overcast
8:18 AM 77.0 °F 73.4 °F 89% 29.91 in 10.0 mi South 16.1 mph - N/A   Mostly Cloudy
8:55 AM 77.7 °F 72.3 °F 83% 29.92 in 10.0 mi South 18.4 mph 27.6 mph N/A   Mostly Cloudy
9:43 AM 78.8 °F 71.6 °F 78% 29.91 in 10.0 mi South 21.9 mph 28.8 mph N/A Rain Light Rain Showers
10:19 AM 78.8 °F 73.4 °F 83% 29.90 in 10.0 mi South 19.6 mph 35.7 mph N/A   Mostly Cloudy
10:55 AM 79.5 °F 72.0 °F 78% 29.90 in 10.0 mi SSW 25.3 mph 35.7 mph N/A   Mostly Cloudy
11:10 AM 78.8 °F 71.6 °F 78% 29.89 in 5.0 mi SSW 23.0 mph 31.1 mph N/A Rain Light Rain Showers
11:28 AM 77.0 °F 73.4 °F 89% 29.87 in 10.0 mi South 21.9 mph 28.8 mph N/A   Overcast
11:55 AM 78.1 °F 72.9 °F 84% 29.86 in 10.0 mi South 18.4 mph 28.8 mph 0.01 in   Overcast
12:30 PM 77.0 °F 73.4 °F 89% 29.84 in 5.0 mi SSW 15.0 mph 25.3 mph N/A Rain Light Rain Showers
12:42 PM 77.0 °F 73.4 °F 89% 29.83 in 5.0 mi SSW 20.7 mph 31.1 mph N/A Rain , Thunderstorm Light Thunderstorms and Rain
12:55 PM 76.1 °F 72.0 °F 87% 29.85 in 10.0 mi SSW 13.8 mph 17.3 mph 0.02 in Rain , Thunderstorm Light Thunderstorms and Rain
1:21 PM 75.2 °F 71.6 °F 89% 29.85 in 10.0 mi SSW 17.3 mph 32.2 mph N/A Thunderstorm Thunderstorm
1:55 PM 75.0 °F 69.1 °F 82% 29.86 in 10.0 mi SSW 17.3 mph 27.6 mph 0.00 in   Mostly Cloudy
2:55 PM 75.9 °F 65.1 °F 69% 29.83 in 10.0 mi SSW 11.5 mph - N/A   Mostly Cloudy
3:55 PM 75.7 °F 62.1 °F 62% 29.84 in 10.0 mi SW 6.9 mph - N/A   Mostly Cloudy
4:55 PM 73.6 °F 62.8 °F 69% 29.86 in 10.0 mi South 8.1 mph - N/A   Mostly Cloudy
5:55 PM 71.2 °F 63.5 °F 76% 29.88 in 10.0 mi SSW 6.9 mph - N/A   Mostly Cloudy
6:55 PM 69.8 °F 62.8 °F 78% 29.89 in 10.0 mi WSW 6.9 mph - N/A   Scattered Clouds
7:55 PM 69.1 °F 63.5 °F 82% 29.91 in 10.0 mi SSW 8.1 mph - N/A   Scattered Clouds
8:55 PM 68.5 °F 63.9 °F 85% 29.91 in 10.0 mi SW 5.8 mph - N/A   Scattered Clouds
9:55 PM 68.4 °F 64.4 °F 87% 29.92 in 10.0 mi WSW 5.8 mph - N/A   Partly Cloudy
10:55 PM 65.5 °F 63.1 °F 92% 29.93 in 10.0 mi South 4.6 mph - N/A   Partly Cloudy
11:55 PM 66.6 °F 64.6 °F 93% 29.93 in 10.0 mi SW 3.5 mph - N/A   Scattered Clouds